Location: Izdebno
(52.6670°N, 16.2170°E)
Time: 09:24:33
(UTC+02:00)

A-11 Canister half - Pass Details

Date: 27 February 2024
Orbit: 1513 x 1686 km, 47.2° (Epoch: 24 April)

Event Time Altitude Azimuth Distance (km) Brightness Sun altitude
Exits shadow 00:58:09 21° 97° (E) 3,127 10.6 -44.8°
Drops below altitude 10° 01:01:25 10° 83° (E) 3,904 11.3 -44.6°
Sets 01:04:54 0° 75° (ENE) 4,872 12.0 -44.4°
